Probability
0 0 0 0 0 0 0 0 0 0 0 0 0 0 0 0 0 0 0 1 6 14 21 29 41 46 45 45 44 40 33 25 19 15 12 9 6 4 3 1 0 0 0 0 0 0 0 0 0
0 0 0 0 0 0 0 0 0 0 0 0 0 0 0 0 0 0 0 2 8 16 21 29 42 48 47 46 45 40 34 27 21 17 14 11 8 5 3 2 1 1 1 0 0 0 0 0 0
0 0 0 0 0 0 0 0 0 0 0 0 0 0 0 0 0 0 1 5 11 18 23 31 43 49 47 47 45 40 35 29 22 17 16 14 10 6 4 4 4 3 2 1 0 0 0 0 0
1 0 0 0 0 0 0 0 0 0 0 0 0 0 0 0 0 0 2 5 11 17 23 34 46 49 47 45 42 38 34 29 22 18 16 14 12 8 7 7 6 4 2 1 0 0 0 0 0
2 1 0 0 0 0 0 0 0 0 0 0 0 0 0 0 0 0 1 5 10 15 23 37 49 51 46 43 39 36 32 28 23 18 15 13 12 11 10 8 7 5 3 1 0 0 0 0 0
2 1 0 0 0 0 0 0 0 0 0 0 0 0 0 0 0 0 1 6 11 14 22 36 46 48 46 43 39 35 31 27 23 18 14 12 12 12 10 8 6 5 3 1 0 0 0 0 0
1 0 0 0 0 0 0 0 0 0 0 0 0 0 0 0 0 0 2 6 11 14 21 30 34 36 39 39 36 33 28 24 20 16 13 11 11 10 8 6 5 4 1 0 0 0 0 0 0
0 0 0 0 0 0 0 0 0 0 0 0 0 0 0 0 0 1 3 7 11 14 19 24 24 24 26 27 27 26 23 19 16 13 10 9 8 7 5 4 4 3 1 0 0 0 0 0 0
0 0 0 0 0 0 0 0 0 0 0 0 0 0 0 0 1 2 5 9 12 15 18 21 20 18 18 18 18 18 17 15 12 9 6 5 5 4 3 3 2 2 1 0 0 0 0 0 0
0 0 0 0 0 0 0 0 0 0 0 0 0 0 0 1 2 3 5 9 13 15 17 18 19 17 16 15 15 14 13 12 10 7 4 3 4 3 3 1 1 1 0 0 0 0 0 0 0
0 0 0 0 0 0 0 0 0 0 0 0 0 0 0 1 2 2 4 7 11 14 15 15 16 16 15 15 14 13 12 10 9 7 4 3 3 3 3 1 0 0 0 0 0 0 0 0 0
0 0 0 0 0 0 0 0 0 0 0 0 0 0 0 0 1 1 3 6 9 11 14 14 14 15 15 15 14 13 11 9 9 8 5 3 3 3 3 2 1 0 0 0 0 0 0 0 0
0 0 0 0 0 0 0 0 0 0 0 0 0 0 0 0 0 1 3 6 8 9 12 14 14 16 17 17 16 13 10 8 8 8 6 4 3 3 3 2 1 0 0 0 0 0 0 0 0
0 0 0 0 0 0 0 0 0 0 0 0 0 0 0 0 0 1 3 6 7 8 11 13 15 17 20 20 19 14 10 8 8 8 7 5 4 3 3 2 1 0 0 0 0 0 0 0 0
0 0 0 0 0 0 0 0 0 0 0 0 0 0 0 0 0 0 2 5 7 7 9 12 16 19 21 22 20 16 12 10 10 9 7 4 3 3 3 2 1 0 0 0 0 0 0 0 0
0 0 0 0 0 0 0 0 0 0 0 0 0 0 0 0 0 0 0 3 6 7 8 11 16 20 22 23 21 18 15 13 11 10 7 4 3 3 3 1 0 0 0 0 0 0 0 0 0
0 0 0 0 0 0 0 0 0 0 0 0 0 0 0 0 0 0 0 2 6 8 10 12 15 19 22 23 22 19 16 13 10 9 7 4 3 3 2 1 0 0 0 0 0 0 0 0 0
0 0 0 0 0 0 0 0 0 0 0 0 0 0 0 0 0 0 0 1 5 10 12 14 15 17 21 24 23 20 16 12 9 7 6 5 4 3 2 1 0 0 0 0 0 0 0 0 0
0 0 0 0 0 0 0 0 0 0 0 0 0 0 0 0 0 0 0 1 5 10 13 15 15 16 20 24 23 20 16 12 10 8 7 6 4 3 1 0 0 0 0 0 0 0 0 0 0
0 0 0 0 0 0 0 0 0 0 0 0 0 0 0 0 0 0 0 2 6 9 12 14 14 14 19 25 25 22 17 14 12 9 7 6 4 2 1 0 0 0 0 0 0 0 0 0 0
0 0 0 0 0 0 0 0 0 0 0 0 0 0 0 0 0 0 0 2 6 9 10 12 11 11 17 24 27 23 18 14 12 10 8 6 3 1 0 0 0 0 0 0 0 0 0 0 0
0 0 0 0 0 0 0 0 0 0 0 0 0 0 0 0 0 0 1 3 7 9 9 9 9 9 13 21 24 21 17 13 12 11 9 6 3 1 0 0 0 0 0 0 0 0 0 0 0
0 0 0 0 0 0 0 0 0 0 0 0 0 0 0 0 0 0 1 3 7 9 8 8 8 7 10 16 19 18 14 12 12 11 9 6 4 1 0 0 0 0 0 0 0 0 0 0 0
0 0 0 0 0 0 0 0 0 0 0 0 0 0 0 0 0 0 0 1 5 7 8 7 5 6 9 14 16 14 12 10 11 10 9 7 4 2 0 0 0 0 0 0 0 0 0 0 0
0 0 0 0 0 0 0 0 0 0 0 0 0 0 0 0 0 0 0 1 4 6 6 4 2 4 8 13 15 12 9 9 9 8 8 6 4 2 1 0 0 0 0 0 0 0 0 0 0
0 0 0 0 0 0 0 0 0 0 0 0 0 0 0 0 0 0 0 1 4 6 5 2 0 2 6 11 13 9 6 7 8 7 6 5 4 2 1 0 0 0 0 0 0 0 0 0 0
0 0 0 0 0 0 0 0 0 0 0 0 0 0 0 0 0 0 0 1 4 6 4 2 0 1 3 7 9 5 3 4 7 7 5 4 3 2 1 0 0 0 0 0 0 0 0 0 0
0 0 0 0 0 0 0 0 0 0 0 0 0 0 0 0 0 0 0 1 3 4 3 2 0 0 1 3 4 2 1 1 4 6 4 3 3 2 1 0 0 0 0 0 0 0 0 0 0
0 0 0 0 0 0 0 0 0 0 0 0 0 0 0 0 0 0 0 0 1 2 2 1 0 0 0 1 2 2 1 0 2 3 3 3 3 3 2 0 0 0 0 0 0 0 0 0 0
0 0 0 0 0 0 0 0 0 0 0 0 0 0 0 0 0 0 0 0 0 0 1 0 0 0 0 1 3 3 2 1 1 2 2 3 3 3 3 1 0 0 0 0 0 0 0 0 0
Wind_Speed
7 9 7 3 4 7 13 11 10 8 5 2 2 3 5 4 2 3 5 6 12 15 17 17 18 18 18 17 17 16 16 16 15 15 15 15 15 15 14 14 14 14 14 14 14 15 15 15 14
8 9 6 4 7 11 11 13 15 12 5 1 1 3 4 3 2 7 5 8 12 14 16 16 17 18 18 18 17 17 16 16 15 15 15 15 15 15 14 14 14 14 14 14 14 14 14 14 14
11 9 5 5 10 14 9 7 8 6 3 2 2 3 4 2 3 5 7 11 11 13 14 16 18 18 18 18 18 17 17 16 16 15 15 15 15 14 14 14 14 14 14 14 14 14 14 14 13
5 4 5 10 19 16 14 11 6 4 3 3 3 4 2 0 2 6 10 10 11 12 13 16 19 18 18 18 18 17 17 17 16 16 15 15 15 14 14 14 14 14 14 14 14 14 13 13 12
4 4 9 14 22 18 14 12 11 8 6 5 6 6 2 1 6 9 9 9 10 11 13 16 19 19 18 18 18 18 17 17 16 16 15 15 15 14 14 14 14 14 14 14 13 13 13 12 11
4 5 11 17 20 17 16 13 12 11 8 7 6 6 4 2 5 7 7 8 9 10 12 16 19 18 18 18 17 17 17 17 16 16 15 15 15 15 15 15 14 14 14 13 13 12 12 11 10
6 7 14 18 17 16 13 10 10 8 8 7 5 6 4 3 4 5 6 7 8 10 12 13 13 14 16 16 16 17 17 16 16 15 15 15 15 15 15 15 14 14 13 13 12 12 11 10 9
5 6 14 16 17 16 11 10 10 8 8 5 5 6 4 4 4 4 5 6 8 10 11 13 12 12 11 11 14 15 15 15 15 15 13 13 13 14 14 13 14 13 13 12 12 11 11 10 8
5 9 15 15 14 11 9 11 9 7 8 7 6 6 2 6 6 5 5 5 7 9 10 12 12 12 11 11 13 13 14 14 14 12 14 12 8 8 9 11 12 13 13 12 11 11 10 9 7
8 12 17 13 12 12 11 12 10 8 11 9 6 4 4 5 6 7 7 7 8 10 10 11 12 12 12 11 10 8 9 9 9 8 10 7 6 6 8 11 12 12 11 11 11 11 10 7 3
9 14 14 16 15 14 14 14 11 12 13 11 8 5 4 5 6 8 8 8 9 10 10 10 11 12 11 8 8 6 6 7 8 10 10 7 6 6 6 5 6 7 8 6 7 6 4 4 3
13 15 16 16 14 13 15 14 14 15 15 10 9 8 7 9 9 9 10 9 9 10 11 11 10 11 11 10 8 7 6 6 6 8 10 7 5 6 6 5 5 5 4 5 5 4 4 4 5
15 15 16 15 15 15 16 16 16 17 14 12 10 10 10 11 10 9 9 8 8 10 11 12 11 11 11 10 8 8 7 7 7 6 8 8 6 7 7 5 5 5 4 5 4 4 4 4 4
10 12 14 15 16 15 17 17 16 17 14 12 11 11 10 11 11 10 10 9 9 10 11 11 13 12 11 9 8 8 7 7 7 7 8 9 7 7 6 6 5 5 5 5 5 4 4 3 3
11 13 14 14 14 12 12 16 16 15 12 12 11 11 11 12 12 12 11 11 11 10 10 11 12 13 12 11 10 8 7 8 7 7 9 9 8 8 7 6 6 5 5 5 4 4 3 3 3
10 10 10 9 10 10 10 16 13 11 11 13 11 11 10 12 12 12 12 11 11 10 10 12 11 12 13 11 10 7 8 8 7 7 7 10 10 9 7 6 6 6 5 4 4 4 3 3 3
6 8 11 10 8 8 10 14 12 11 12 13 11 11 10 10 11 12 12 12 12 12 11 12 11 12 12 11 9 8 8 8 7 7 7 9 10 10 7 6 6 7 5 4 4 4 3 3 3
6 9 11 11 8 10 13 16 13 11 12 12 11 10 10 11 11 11 11 11 11 12 12 13 11 12 12 10 8 6 7 7 7 7 8 10 9 10 8 6 7 7 5 5 4 5 4 3 4
11 13 15 14 11 11 14 17 16 13 12 11 11 11 11 11 10 9 9 9 10 11 11 12 12 12 11 9 9 9 8 7 7 7 10 11 10 10 9 7 8 7 6 6 6 5 5 4 3
11 14 15 13 9 11 14 18 16 14 13 12 11 11 10 9 9 8 9 9 10 11 12 12 13 13 12 10 9 8 8 7 7 7 9 11 11 11 9 9 8 8 7 8 7 6 4 3 4
11 12 13 13 13 11 13 14 13 11 12 11 10 9 7 7 6 6 7 8 8 10 12 11 12 12 12 10 8 7 6 6 7 8 8 10 11 11 11 10 9 8 8 7 8 7 7 5 4
11 9 12 13 10 7 6 10 10 11 11 10 8 7 7 7 6 5 5 5 6 8 9 11 11 11 11 11 11 12 11 10 9 9 8 9 11 11 11 11 10 9 8 8 8 7 6 7 5
9 10 12 12 10 10 9 9 8 7 9 8 7 7 6 5 5 4 5 5 5 5 6 8 10 11 12 12 13 13 11 9 7 8 11 11 10 11 12 12 11 10 8 9 9 8 7 6 6
8 8 10 8 5 8 9 9 7 5 6 6 5 5 4 4 3 3 2 2 2 3 5 5 8 11 12 13 15 15 14 12 11 12 12 11 9 9 12 12 11 10 9 10 10 9 10 7 7
5 4 3 3 4 7 5 7 6 4 3 2 2 1 1 1 2 2 1 1 2 3 4 5 7 9 10 13 15 16 15 14 14 13 13 12 10 10 14 12 12 11 10 10 10 10 9 9 8
4 3 3 4 4 5 5 6 4 2 1 1 1 3 3 2 2 2 2 2 2 2 3 4 6 8 9 11 13 14 15 12 11 12 11 12 11 11 13 14 12 12 12 11 10 9 9 8 8
3 4 5 6 7 7 6 5 6 4 2 2 3 4 4 4 4 4 3 2 1 2 3 5 5 7 8 9 10 12 14 13 13 12 11 10 10 10 13 14 14 13 13 12 11 9 10 9 9
5 4 2 3 4 6 6 6 5 1 3 3 3 4 4 5 5 5 4 3 2 2 3 4 5 7 7 8 8 8 11 13 13 12 12 12 13 12 14 15 15 14 13 13 12 9 10 10 9
5 5 4 4 5 4 5 3 3 3 3 4 4 4 4 5 5 5 4 4 3 2 2 4 4 5 6 7 8 8 9 10 11 12 13 12 13 14 14 15 15 15 14 14 13 12 12 12 10
6 6 5 5 6 5 6 6 3 3 2 3 4 5 5 5 6 6 5 5 4 3 2 3 4 4 5 6 7 8 8 9 10 11 12 12 13 14 14 15 15 15 15 14 15 14 14 14 13
Wind_Direction
266 242 230 233 235 233 239 240 253 260 251 252 323 301 292 286 302 118 169 150 124 136 145 156 154 154 152 150 146 142 139 136 134 134 133 130 127 124 121 118 116 115 111 108 106 102 100 98 95
265 239 230 229 232 235 238 231 244 255 266 29 12 302 283 282 55 112 143 126 130 138 145 156 154 154 153 151 147 144 141 138 136 136 134 132 130 126 123 120 117 115 113 109 106 104 102 100 98
265 243 228 226 229 232 239 235 233 237 250 272 237 247 260 281 95 116 127 129 132 139 146 152 154 155 154 153 150 147 145 142 140 138 135 133 130 127 126 124 120 118 115 113 110 107 105 103 101
252 228 240 238 239 235 244 261 271 261 231 205 244 247 224 24 87 115 124 133 137 141 144 151 156 158 156 154 152 150 149 147 144 142 139 136 132 129 127 125 122 120 119 116 114 111 109 107 105
241 232 231 238 243 247 253 260 269 266 259 229 220 243 244 56 99 117 132 140 144 145 144 152 158 159 159 157 155 153 152 150 148 146 143 140 136 133 129 127 126 125 123 120 118 116 114 111 109
223 228 233 239 243 243 246 249 255 256 256 251 239 247 239 161 121 132 143 148 147 143 143 151 159 159 160 159 158 157 154 152 151 149 147 145 141 137 133 131 130 129 127 125 122 121 118 115 114
233 237 243 249 254 251 250 254 254 257 257 253 249 251 227 171 129 139 147 152 146 142 144 149 160 160 162 161 160 158 155 154 152 150 148 145 143 141 138 136 134 133 132 129 126 125 123 120 119
244 252 250 247 250 254 260 265 264 273 273 275 262 253 228 148 138 140 145 153 145 146 148 152 161 163 164 162 160 157 156 154 152 147 143 142 143 143 140 138 138 137 136 133 131 131 129 126 128
240 240 243 244 252 262 276 279 277 282 278 277 275 280 195 145 151 154 156 158 155 155 156 157 164 165 165 164 162 157 155 153 148 144 143 142 144 142 143 139 142 142 140 138 138 138 135 133 140
216 239 247 255 267 278 281 281 289 281 270 268 274 279 152 167 169 181 180 177 174 169 168 166 167 168 167 166 160 161 158 156 157 155 157 161 155 147 142 140 143 145 145 146 148 149 146 146 159
225 241 259 267 276 285 285 278 278 270 263 256 252 240 199 203 198 203 201 193 186 179 174 172 169 168 167 161 163 165 161 165 171 166 168 162 144 136 133 139 140 142 148 150 152 154 176 174 165
248 252 258 264 271 278 281 278 268 260 263 266 254 240 227 223 221 213 209 204 194 185 180 176 173 168 167 165 167 164 165 171 171 169 169 159 151 151 152 157 161 162 164 160 164 180 181 173 167
253 260 263 272 273 273 277 270 268 261 262 265 256 239 233 228 228 230 217 207 203 193 184 180 175 172 169 167 169 169 170 171 166 167 171 160 156 159 159 162 164 169 160 160 172 182 170 170 168
269 277 275 275 275 274 272 272 267 260 259 258 251 245 231 231 226 228 222 212 210 202 188 182 177 174 170 171 172 172 172 170 168 169 170 162 160 161 160 160 163 165 160 164 170 175 166 166 158
277 273 272 260 259 266 273 265 257 261 259 253 245 246 237 232 228 225 220 213 211 207 195 186 181 176 174 175 177 173 172 169 167 168 169 165 163 162 160 161 161 164 162 162 165 164 158 151 148
271 259 256 252 250 259 257 259 257 261 264 259 252 246 240 235 229 227 218 215 210 206 201 191 184 180 178 178 178 173 175 171 166 166 169 170 166 162 161 160 163 164 158 158 156 153 154 150 154
243 257 265 276 252 262 260 269 266 266 263 261 257 253 247 238 232 228 219 209 208 203 202 192 185 184 181 178 177 176 174 172 168 165 168 171 168 164 162 162 164 162 157 159 161 159 162 159 159
273 277 277 278 273 276 272 274 274 270 265 262 258 254 250 243 236 228 221 209 208 202 200 190 184 187 180 176 178 177 176 174 171 169 170 168 169 167 164 164 167 162 159 163 162 164 168 158 160
281 282 281 282 285 279 274 276 275 269 266 262 258 253 245 239 235 230 221 211 203 200 197 191 186 187 184 179 181 182 182 178 174 174 172 172 171 170 167 168 169 166 167 170 167 163 169 170 154
279 282 281 283 285 285 279 274 272 267 262 259 256 253 250 247 234 224 218 213 205 201 193 191 189 189 188 186 180 180 176 178 177 177 177 177 176 173 174 172 171 170 168 171 174 165 164 172 162
274 273 281 288 296 281 285 277 262 262 260 257 253 256 260 255 241 226 221 216 205 198 190 192 189 191 189 182 172 170 168 173 180 185 183 182 179 178 176 177 173 174 172 176 177 173 169 174 180
281 284 290 289 290 281 271 283 266 257 251 245 245 253 255 266 252 224 214 210 202 203 192 189 188 190 188 181 180 176 182 187 190 181 181 182 182 182 180 180 179 178 176 176 178 175 171 167 180
278 296 289 278 276 278 261 264 270 250 247 237 234 242 249 264 269 243 217 208 209 198 187 192 191 194 190 186 187 186 191 191 182 177 181 185 186 186 185 184 184 182 180 178 178 176 178 178 178
291 297 289 270 258 259 243 241 274 252 249 244 233 243 242 252 269 271 225 189 219 192 184 183 194 202 194 192 191 191 194 189 184 186 185 187 187 188 189 188 187 185 182 182 182 181 183 185 183
286 301 301 273 226 245 252 245 255 251 254 259 230 229 275 296 322 337 328 241 218 189 193 194 195 208 203 200 197 195 196 194 193 194 190 187 188 190 192 189 189 188 185 183 180 182 185 186 186
263 250 258 276 268 292 281 250 264 299 318 352 57 49 27 350 343 327 309 269 204 200 209 208 209 216 211 203 201 198 199 198 199 200 197 193 193 191 187 189 191 190 186 185 183 185 187 188 190
268 243 254 274 281 273 253 257 270 281 309 9 45 43 27 360 0 351 350 324 213 212 229 221 219 220 214 209 204 202 201 202 200 199 202 197 193 187 186 188 190 191 188 186 184 188 189 189 192
248 274 271 248 273 271 262 257 279 330 351 18 37 27 3 357 356 344 339 331 295 232 232 230 224 227 218 213 209 209 204 205 202 198 203 200 192 189 186 189 192 191 190 188 186 186 187 188 193
234 238 247 255 259 274 285 279 342 19 36 31 19 10 1 352 344 333 327 319 307 280 246 241 237 241 228 217 212 210 210 209 206 202 204 203 194 190 190 191 192 192 192 190 189 191 188 190 192
242 241 232 247 260 254 269 273 331 5 24 26 12 3 356 354 353 345 336 329 327 315 276 248 244 248 241 228 220 213 210 208 210 210 206 204 198 192 191 191 193 194 193 191 192 193 192 192 193